Terug naar catalogus

STARLINK-4085

ActiefCommunicatieVLEO
NORAD 53262·PAYLOAD·🇺🇸 United States

Gelanceerd Jul 24, 2022 vanaf Cape Canaveral Space Force Station

Loading…

Volgende Passages (komende 24 uur)

TLE

VersSource: CelesTrak SupGP

Epoch: Sep 14, 2026, 21:48 UTC

1 53262C 22086W   26257.90881944  .00044283  00000+0  13438-2 0  2579
2 53262  53.1584  52.0065 0001139  79.2734 262.7198 15.33526098    18

Volg STARLINK-4085 in realtime met AllMySat

Download on the App Store